User: anonymous   Login
Location: Unspecified
(0.0000°N, 0.0000°E)
Time: 16:41:13
(UTC+00:00)
Language:

USA 97 - Orbit

View from above orbital plane
View from above orbital plane
View from above satellite
View from above satellite

Ground track
Ground track

The orbit data is extracted from the following two-line orbital elements,

1 22915U 93074A   16165.09568092  .00000000  00000-0  00000-0 0    03
2 22915  10.1694  41.6668 0006196 289.7224  70.2228  0.98534141    05
Epoch (UTC): 13 June 2016 02:17:46
Eccentricity: 0.0006196
inclination: 10.1694°
perigee height: 36254 km
apogee height: 36307 km
right ascension of ascending node: 41.6668°
argument of perigee: 289.7224°
revolutions per day: 0.98534141
mean anomaly at epoch: 70.2228°
orbit number at epoch: 0

The dashed part of the orbit path shows where the satellite is in the earth's shadow,  

DLR